{"data":{"norad_id":60446,"epoch":"2026-05-24T21:50:07.551168Z","epoch_age_seconds":82775,"freshness":"FRESH","line1":"1 60446U 24144X   26144.90980962 -.00000528  00000+0 -57029-5 0  9999","line2":"2 60446  53.1595 212.6681 0000892  80.4074 279.7027 15.30187373101169","mean_motion":15.30187373,"eccentricity":8.92e-5,"inclination_deg":53.1595,"raan_deg":212.6681,"arg_perigee_deg":80.4074,"mean_anomaly_deg":279.7027,"bstar":-5.7029e-6,"rev_number":10116,"period_min":94.106122257225,"perigee_km":474.64144925692,"apogee_km":475.86409399218,"semimajor_km":6853.3897716246,"source":"CELESTRAK","updated_at":"2026-05-25T13:38:19.277413Z"}}